Flag for Belarus Weather past 2 weeks in Barysaw, Belarus

Now
50 °F

Passing clouds.


Feels Like: 49 °F
Forecast: 50 / 75 °F
Wind: 3 mph from Southwest

Location: Minsk

Current Time: Apr 27, 2015 at 5:39:54 AM

Latest Report: Apr 27, 2015 at 5:00 AM


Visibility: N/A

Pressure: 29.77 "Hg

Humidity: 94%

Dew point: 48 °F

Location of BarysawLocation

Historic Weather in Barysaw — Graph

°F

Barysaw temperature yesterday

Maximum temperature yesterday: 70 °F (at 1:00 PM)
Minimum temperature yesterday: 43 °F (at 2:30 AM)
Average temperature yesterday: 56 °F

Past Weeks' High & Low Weather Summary

 TemperatureHumidityPressure
High70 °F (Apr 26, 1:00 PM)100% (Apr 12, 4:00 AM)30.21 "Hg (Apr 12, 4:00 AM)
Low28 °F (Apr 19, 5:00 AM)28% (Apr 12, 12:30 PM)29.36 "Hg (Apr 16, 6:30 AM)
Average44 °F71%29.80 "Hg
* Reported Apr 12 4:00 AM — Apr 27 4:30 AM, Barysaw, Weather by CustomWeather, © 2015

Note: Actual official high and low records may vary slightly from our data, if they occured in-between our weather recording intervals... More about our weather records

Advertising

Barysaw weather history for previous 24 hours

 ConditionsComfort  
Time TempWeatherWind HumidityBarometerVisibility
4:30 AM
Mon, Apr 27
50 °FClear.No wind94%29.77 "Hg10 mi
4:00 AM50 °FClear.No wind94%29.77 "Hg10 mi
3:30 AM50 °FClear.1 mph94%29.77 "Hg10 mi
3:00 AM52 °FClear.1 mph88%29.77 "Hg10 mi
2:30 AM54 °FClear.1 mph82%29.77 "Hg10 mi
2:00 AM54 °FClear.1 mph82%29.77 "Hg10 mi
1:30 AM54 °FClear.1 mph82%29.77 "Hg10 mi
1:00 AM54 °FPartly cloudy.No wind82%29.77 "HgN/A
12:30 AM54 °FClear.1 mph82%29.77 "Hg10 mi
12:00 AM55 °FPassing clouds.3 mph77%29.74 "HgN/A
11:30 PM
Sun, Apr 26
55 °FClear.1 mph77%29.74 "Hg10 mi
11:00 PM55 °FPassing clouds.3 mph72%29.74 "HgN/A
10:30 PM57 °FPassing clouds.3 mph67%29.74 "HgN/A
10:00 PM54 °FClear.3 mph88%29.74 "Hg10 mi
9:30 PM55 °FClear.1 mph88%29.74 "Hg10 mi
9:00 PM59 °FSunny.6 mph63%29.74 "Hg10 mi
8:30 PM61 °FPassing clouds.6 mph59%29.74 "HgN/A
8:00 PM61 °FPassing clouds.8 mph59%29.74 "HgN/A
7:30 PM61 °FPassing clouds.6 mph59%29.74 "HgN/A
7:00 PM61 °FPassing clouds.6 mph59%29.74 "HgN/A
6:30 PM63 °FPartly sunny.8 mph52%29.74 "HgN/A
6:00 PM61 °FSprinkles. Partly sunny.3 mph55%29.74 "HgN/A
5:30 PM61 °FSprinkles. Partly sunny.6 mph63%29.74 "HgN/A
5:00 PM61 °FSprinkles. Broken clouds.3 mph77%29.74 "HgN/A
4:30 PM59 °FPartly sunny.6 mph82%29.74 "HgN/A
4:00 PM57 °FSprinkles. Partly sunny.6 mph88%29.74 "HgN/A
3:30 PM66 °FSprinkles. Partly sunny.10 mph49%29.74 "Hg2 mi
3:00 PM68 °FPassing clouds.6 mph40%29.71 "HgN/A
2:30 PM68 °FPassing clouds.3 mph40%29.74 "HgN/A
2:00 PM68 °FPassing clouds.6 mph43%29.74 "HgN/A
1:30 PM68 °FPassing clouds.8 mph43%29.74 "HgN/A
1:00 PM70 °FPassing clouds.8 mph40%29.74 "HgN/A
12:30 PM68 °FPassing clouds.8 mph46%29.74 "HgN/A
12:00 PM66 °FPassing clouds.8 mph49%29.74 "HgN/A
11:30 AM64 °FPassing clouds.8 mph56%29.77 "HgN/A
11:00 AM63 °FPassing clouds.6 mph56%29.77 "HgN/A
10:30 AM61 °FPassing clouds.6 mph59%29.77 "HgN/A
10:00 AM59 °FPassing clouds.8 mph63%29.77 "HgN/A
9:30 AM57 °FPassing clouds.8 mph67%29.80 "HgN/A
9:00 AM54 °FPassing clouds.6 mph77%29.80 "HgN/A
8:30 AM52 °FSunny.6 mph82%29.80 "Hg10 mi
8:00 AM48 °FSunny.3 mph94%29.80 "Hg10 mi
7:30 AM46 °FSunny.3 mph93%29.80 "Hg10 mi
7:00 AM45 °FSunny.3 mph93%29.80 "Hg10 mi
6:30 AM43 °FClear.3 mph93%29.80 "Hg10 mi
6:00 AM43 °FClear.No wind93%29.83 "Hg10 mi
5:30 AM43 °FClear.No wind93%29.83 "Hg10 mi
5:00 AM45 °FClear.3 mph87%29.83 "Hg10 mi
Weather by CustomWeather, © 2015

See weather overviewHow to use our weather pages